Miscellaneous Local Product
Issued by NWS North Platte, NE

Home | Current Version | Previous Version | Graphics & Text | Print | Product List | Glossary On
Versions: 1 2 3 4 5 6 7 8 9 10 11 12 13 14 15 16 17 18 19 20 21 22 23 24 25 26 27 28 29 30 31 32 33 34 35 36 37 38 39 40 41 42 43 44 45 46 47 48 49 50
000
AXUS43 KLBF 282310
MISLBF


WESTERN AND NORTH CENTRAL NEBRASKA HOURLY WEATHER ROUNDUP
NATIONAL WEATHER SERVICE NORTH PLATTE NE
600 PM CDT FRI AUG 28 2015

NOTE: "FAIR" INDICATES FEW OR NO CLOUDS BELOW 12,000 FEET WITH NO
SIGNIFICANT WEATHER AND/OR OBSTRUCTIONS TO VISIBILITY.

NOTE: STATIONS NOT REPORTING VARIABLES SUCH AS SKY/WEATHER OR
PRESSURE ARE PROVIDED BY THE NEBRASKA DEPARTMENT OF
ROADS...RAWS...AND APRS NETWORKS...AND ARE NOT UNDER
NATIONAL WEATHER SERVICE QUALITY CONTROL.

...OBSERVATIONS IN AND NEAR THE EASTERN PANHANDLE OF NEBRASKA...

CITY           SKY/WX    TMP DP  RH WIND       PRES   REMARKS
PINE RIDGE     SUNNY     86  50  28 NE6       30.05R
CHADRON        SUNNY     89  45  21 CALM      30.04S HAZE
ALLIANCE       SUNNY     86  48  26 N8        30.09S
SIDNEY         SUNNY     86  44  23 N13G23    30.13R
CRESCENT LAKE    N/A     84  44  24 N9G17       N/A
BIG SPRINGS      N/A     88  53  30 N5          N/A
$$

...OBSERVATIONS IN NORTH CENTRAL NEBRASKA...

CITY           SKY/WX    TMP DP  RH WIND       PRES   REMARKS
VALENTINE      SUNNY     81  60  48 N5        30.01F
THEDFORD       SUNNY     80  62  54 NE8       30.04S
AINSWORTH      SUNNY     76  64  67 NE5       30.03S
O`NEILL        MOSUNNY   75  64  68 N6        30.00R
ORD            CLOUDY    75  61  61 N8        29.98R
BROKEN BOW     MOSUNNY   79  61  53 N9        30.00S
SPRINGVIEW       N/A     76  65  70 CALM        N/A
SARGENT          N/A     76  63  64 CALM        N/A
CHAMBERS         N/A     76  63  63 N3          N/A
EWING            N/A     74  65  74 CALM        N/A
$$

...OBSERVATIONS IN SOUTHWEST NEBRASKA AND FAR NORTHEAST COLORADO...

CITY           SKY/WX    TMP DP  RH WIND       PRES   REMARKS
WRAY           FAIR      91  41  17 N15G21    30.06S
HOLYOKE        FAIR      90  45  20 N16G22    30.07R
IMPERIAL       MOSUNNY   88  53  30 NE9G22    30.04R
OGALLALA       SUNNY     88  53  30 NE13      30.04R
NORTH PLATTE   SUNNY     81  62  52 N12       30.01S
MCCOOK         SUNNY     85  59  41 N15       29.99S
LEXINGTON      SUNNY     79  63  56 N10       29.99S
PAXTON           N/A     85  58  39 N7          N/A
BRADY            N/A     80  64  58 CALM        N/A
CALLAWAY         N/A     78  67  68 N8          N/A
$$

...OBSERVATIONS IN CENTRAL LINCOLN COUNTY AREA...

CITY           SKY/WX    TMP DP  RH WIND       PRES   REMARKS
N.P. AIRPORT   SUNNY     81  62  52 N12       30.01S
N.P. DOWNTOWN    N/A     81  64  55 NE8G15      N/A
$$

...SOME OBSERVATIONS FROM AROUND THE REGION...

CITY           SKY/WX    TMP DP  RH WIND       PRES   REMARKS
DENVER         MOSUNNY   85  40  20 NW9       30.20S
LARAMIE        SUNNY     74  39  28 VRB5      30.33F
CHEYENNE       SUNNY     80  37  21 NE5       30.25S
SCOTTSBLUFF    SUNNY     88  41  19 N7        30.10R
RAPID CITY     SUNNY     85  58  39 CALM      30.03R
PIERRE         SUNNY     82  66  58 E5        29.93S
WINNER         FAIR      78  64  61 SE6       29.99S
SIOUX FALLS    PTSUNNY   70  61  73 E12       29.96S
OMAHA          PTSUNNY   75  66  73 NW10      29.86R
GRAND ISLAND   CLOUDY    74  61  63 N16       29.97R
KANSAS CITY    PTSUNNY   76  64  66 S15G23    29.90S
WICHITA        MOSUNNY   89  70  53 SW7       29.86F HX  94
HAYS           SUNNY     90  59  35 N15G22    29.93R
LIBERAL        MOSUNNY   90  55  31 CALM      30.00S
GOODLAND       SUNNY     90  41  18 N16G23    30.04S
$$



USA.gov is the U.S. government's official web portal to all federal, state and local government web resources and services.